sat.trackr.live / text

‹ back to catalog

STARLINK-31001

NORAD 58527 · 2023-191V

PAYLOAD ACTIVE UNKNOWN

§ Identity

Operator
Country
US
Launch date
2023-12-07
Launch site
AFETR
Launch vehicle
Mass (kg)
RCS (m²)

Purposes: comms

External: N2YO · Heavens-Above · Gunter

§ Orbital elements

Epoch: 2026-09-20T21:20:38.119776Z

Period
94.27 min
Inclination
43.0050°
Eccentricity
0.0001401
Mean motion
15.27576777 rev/d
Perigee alt
482.1 km
Apogee alt
484.0 km
Semi-major
6,861.2 km
B*
2.1406e-5
RAAN
81.0346°
Arg perigee
256.9125°
Mean anomaly
103.1571°
Rev number
15,532

§ Raw data

STARLINK-310011 58527U 23191V   26263.88933009  .00000327  00000+0  21406-4 0  99902 58527  43.0050  81.0346 0001401 256.9125 103.1571 15.27576777155327

JSON: /api/v1/satellites/58527 · /tle

For live sub-satellite position, see the globe view (requires WebGL).

§ Visibility from observer

Set your observer location to see the next 7 days of passes ≥ 10°. The values pass through the URL so the page stays shareable.

No JS? Fill the form by hand. The geolocation button needs JavaScript.